STARLINK-30097

decayed
NORAD ID: 56303 Int'l Des: 2023-056 Owner: SPXS Country: US Constellation: starlink
LEOCIRCULAR
Group

About STARLINK-30097

Description loading...

Altitude History

Altitude vs Time

uPlot chart will show altitude changes over time

Two-Line Element Set

1 56303U 23056T 24204.96812958 .10965080 92093-5 85403-3 0 9993
2 56303 42.9716 95.2922 0014089 252.0103 232.8544 16.38811302 71203
Epoch: Jul 22, 2024 • Age: 10081 hours

Current Status

Position data unavailable
Launch Date Apr 19, 2023
Age 2.4 years
Decay Date Jul 23, 2024
Type internet

Technical Details

Classification Payload
Mass 730.00 kg
Dry Mass 700.00 kg
Total Mass 730.00 kg
Length 0.30 m
Diameter 4.10 m
Span 29.00 m
Shape Box + pan
Manufacturer SPXS
Bus Type Starlink V2M
Phase Status Unknown Transfer Status
Owner/State SPXS/US

Large Constellations

Loading constellations...